timestamp,wind_dir_avg,wind_spd_avg,wind_spd_max_dir,wind_spd_gust,battery_voltage,lat,long
2024-02-16 00:04:00+00:00,329.0,16.55,337.0,19.75,12.25,47.59359,-54.27349
2024-02-16 00:14:00+00:00,333.0,14.03,331.0,17.67,12.25,47.59359,-54.27349
2024-02-16 00:24:00+00:00,341.0,16.57,336.0,20.6,12.25,47.59359,-54.27349
2024-02-16 00:34:00+00:00,340.0,17.16,336.0,22.09,12.25,47.59359,-54.27349
2024-02-16 00:44:00+00:00,350.0,17.88,335.0,25.11,12.25,47.59359,-54.27349
2024-02-16 00:54:00+00:00,334.0,18.27,334.0,21.41,12.25,47.59359,-54.27349
2024-02-16 01:04:00+00:00,333.0,16.65,331.0,20.77,12.25,47.59359,-54.27349
2024-02-16 01:14:00+00:00,330.0,15.72,333.0,19.66,12.17,47.59359,-54.27349
2024-02-16 01:24:00+00:00,332.0,15.53,331.0,18.48,12.17,47.59359,-54.27349
2024-02-16 01:34:00+00:00,328.0,14.15,330.0,17.11,12.17,47.59359,-54.27349
2024-02-16 01:44:00+00:00,338.0,13.37,327.0,17.41,12.17,47.59359,-54.27349
2024-02-16 01:54:00+00:00,331.0,17.27,332.0,20.61,12.17,47.59359,-54.27349
2024-02-16 02:04:00+00:00,333.0,17.31,331.0,21.1,12.17,47.59359,-54.27349
2024-02-16 02:14:00+00:00,335.0,15.05,330.0,18.16,12.17,47.59359,-54.27349
2024-02-16 02:24:00+00:00,330.0,17.1,341.0,21.35,12.17,47.59359,-54.27349
2024-02-16 02:34:00+00:00,331.0,16.59,332.0,19.97,12.17,47.59359,-54.27349
2024-02-16 02:44:00+00:00,327.0,15.2,327.0,17.4,12.17,47.59359,-54.27349
2024-02-16 02:54:00+00:00,328.0,14.3,328.0,17.68,12.17,47.59359,-54.27349
2024-02-16 03:04:00+00:00,334.0,12.69,323.0,16.08,12.17,47.59359,-54.27349
2024-02-16 03:14:01+00:00,342.0,13.05,325.0,16.55,12.17,47.59359,-54.27349
2024-02-16 03:24:01+00:00,333.0,13.43,325.0,17.32,12.17,47.59359,-54.27349
2024-02-16 03:34:01+00:00,329.0,14.82,329.0,17.82,12.17,47.59359,-54.27349
2024-02-16 03:44:01+00:00,333.0,15.53,329.0,18.43,12.17,47.59359,-54.27349
2024-02-16 03:54:01+00:00,334.0,15.95,332.0,19.87,12.17,47.59359,-54.27349
2024-02-16 04:04:01+00:00,341.0,13.7,328.0,17.67,12.17,47.59359,-54.27349
2024-02-16 04:14:00+00:00,326.0,14.2,328.0,17.68,12.17,47.59359,-54.27349
2024-02-16 04:24:00+00:00,327.0,14.61,330.0,17.96,12.17,47.59359,-54.27349
2024-02-16 04:34:00+00:00,325.0,15.15,328.0,17.62,12.17,47.59359,-54.27349
2024-02-16 04:44:00+00:00,326.0,15.61,328.0,17.34,12.17,47.59359,-54.27349
2024-02-16 04:54:00+00:00,321.0,14.08,327.0,16.83,12.17,47.59359,-54.27349
2024-02-16 05:04:00+00:00,324.0,14.31,327.0,15.91,12.17,47.59359,-54.27349
2024-02-16 05:14:00+00:00,320.0,12.29,323.0,13.92,12.17,47.59359,-54.27349
2024-02-16 05:24:00+00:00,324.0,12.43,331.0,18.51,12.17,47.59359,-54.27349
2024-02-16 05:34:00+00:00,322.0,12.09,317.0,13.68,12.17,47.59359,-54.27349
2024-02-16 05:44:00+00:00,330.0,13.79,330.0,17.44,12.17,47.59359,-54.27349
2024-02-16 05:54:00+00:00,335.0,10.28,322.0,13.42,12.17,47.59359,-54.27349
2024-02-16 06:04:00+00:00,323.0,12.16,321.0,14.83,12.17,47.59359,-54.27349
2024-02-16 06:14:00+00:00,319.0,13.1,319.0,14.82,12.09,47.59359,-54.27349
2024-02-16 06:24:00+00:00,316.0,12.47,323.0,14.76,12.09,47.59359,-54.27349
2024-02-16 06:34:00+00:00,321.0,13.45,323.0,15.47,12.09,47.59359,-54.27349
2024-02-16 06:44:00+00:00,320.0,13.21,328.0,15.94,12.09,47.59359,-54.27349
2024-02-16 06:54:00+00:00,324.0,14.06,319.0,16.82,12.09,47.59359,-54.27349
2024-02-16 07:04:00+00:00,326.0,15.25,331.0,17.43,12.09,47.59359,-54.27349
2024-02-16 07:14:00+00:00,322.0,13.72,330.0,16.45,12.09,47.59359,-54.27349
2024-02-16 07:24:00+00:00,321.0,13.56,323.0,16.16,12.09,47.59359,-54.27349
2024-02-16 07:34:00+00:00,321.0,13.75,325.0,15.82,12.09,47.59359,-54.27349
2024-02-16 07:44:00+00:00,316.0,12.14,324.0,14.23,12.09,47.59359,-54.27349
2024-02-16 07:54:00+00:00,317.0,12.64,324.0,15.06,12.09,47.59359,-54.27349
2024-02-16 08:04:00+00:00,311.0,11.68,296.0,18.75,12.09,47.59359,-54.27349
2024-02-16 08:14:00+00:00,311.0,11.04,310.0,12.59,12.09,47.59359,-54.27349
2024-02-16 08:24:00+00:00,317.0,12.94,322.0,15.98,12.09,47.59359,-54.27349
2024-02-16 08:34:00+00:00,314.0,11.95,317.0,13.73,12.09,47.59359,-54.27349
2024-02-16 08:44:00+00:00,315.0,11.22,315.0,14.28,12.09,47.59359,-54.27349
2024-02-16 08:54:00+00:00,305.0,14.02,304.0,19.45,12.09,47.59359,-54.27349
2024-02-16 09:04:00+00:00,312.0,12.04,317.0,13.66,12.09,47.59359,-54.27349
2024-02-16 09:14:00+00:00,312.0,17.32,306.0,23.96,12.09,47.59359,-54.27349
2024-02-16 09:24:00+00:00,315.0,13.28,319.0,16.39,12.09,47.59359,-54.27349
2024-02-16 09:34:00+00:00,312.0,12.17,318.0,14.54,12.09,47.59359,-54.27349
2024-02-16 09:44:00+00:00,311.0,12.25,314.0,14.25,12.09,47.59359,-54.27349
2024-02-16 09:54:00+00:00,312.0,12.92,317.0,14.99,12.09,47.59359,-54.27349
2024-02-16 10:04:00+00:00,309.0,13.59,307.0,17.08,12.09,47.59359,-54.27349
2024-02-16 10:14:00+00:00,312.0,12.66,320.0,15.18,12.01,47.59359,-54.27349
2024-02-16 10:24:00+00:00,309.0,16.02,304.0,19.52,12.01,47.59359,-54.27349
2024-02-16 10:34:00+00:00,310.0,12.46,306.0,16.86,12.01,47.59359,-54.27349
2024-02-16 10:44:00+00:00,314.0,12.71,315.0,15.04,12.01,47.59359,-54.27349
2024-02-16 10:54:00+00:00,313.0,12.91,312.0,18.07,12.01,47.59359,-54.27349
2024-02-16 11:04:00+00:00,323.0,11.49,321.0,13.41,12.01,47.59359,-54.27349
2024-02-16 11:14:00+00:00,320.0,12.18,318.0,14.44,12.09,47.59359,-54.27349
2024-02-16 11:24:00+00:00,314.0,11.51,313.0,14.6,12.09,47.59359,-54.27349
2024-02-16 11:34:00+00:00,320.0,9.99,327.0,12.23,12.09,47.59359,-54.27349
2024-02-16 11:44:00+00:00,309.0,11.36,312.0,13.01,12.09,47.59359,-54.27349
2024-02-16 11:54:00+00:00,306.0,10.88,308.0,12.53,12.09,47.59359,-54.27349
2024-02-16 12:04:00+00:00,308.0,13.51,301.0,18.83,12.09,47.59359,-54.27349
2024-02-16 12:14:01+00:00,312.0,10.65,312.0,12.55,12.57,47.59359,-54.27349
2024-02-16 12:24:01+00:00,312.0,11.47,313.0,14.59,12.57,47.59359,-54.27349
2024-02-16 12:34:01+00:00,310.0,11.17,293.0,16.07,12.57,47.59359,-54.27349
2024-02-16 12:44:01+00:00,315.0,11.66,322.0,13.87,12.57,47.59359,-54.27349
2024-02-16 12:54:01+00:00,303.0,10.21,308.0,12.96,12.57,47.59359,-54.27349
2024-02-16 13:04:01+00:00,307.0,8.02,304.0,10.48,12.57,47.59359,-54.27349
2024-02-16 13:14:00+00:00,299.0,9.58,305.0,11.97,12.97,47.59359,-54.27349
2024-02-16 13:24:00+00:00,299.0,10.1,300.0,11.95,12.97,47.59359,-54.27349
2024-02-16 13:34:00+00:00,294.0,8.72,291.0,10.18,12.97,47.59359,-54.27349
2024-02-16 13:44:00+00:00,295.0,10.29,302.0,12.25,12.97,47.59359,-54.27349
2024-02-16 13:54:00+00:00,307.0,11.14,309.0,13.55,12.97,47.59359,-54.27349
2024-02-16 14:04:00+00:00,312.0,11.03,315.0,14.05,12.97,47.59359,-54.27349
2024-02-16 14:14:00+00:00,305.0,8.76,307.0,10.21,13.53,47.59359,-54.27349
2024-02-16 14:24:00+00:00,303.0,9.37,309.0,11.01,13.53,47.59359,-54.27349
2024-02-16 14:34:00+00:00,313.0,10.77,317.0,13.62,13.53,47.59359,-54.27349
2024-02-16 14:44:00+00:00,306.0,10.65,307.0,11.79,13.53,47.59359,-54.27349
2024-02-16 14:54:00+00:00,301.0,9.07,301.0,10.78,13.53,47.59359,-54.27349
2024-02-16 15:04:00+00:00,305.0,8.03,306.0,9.23,13.53,47.59359,-54.27349
2024-02-16 15:14:00+00:00,293.0,10.09,297.0,11.06,13.44,47.59359,-54.27349
2024-02-16 15:24:00+00:00,306.0,8.88,303.0,10.83,13.44,47.59359,-54.27349
2024-02-16 15:34:00+00:00,293.0,9.02,293.0,10.43,13.44,47.59359,-54.27349
2024-02-16 15:44:00+00:00,291.0,9.13,292.0,10.96,13.44,47.59359,-54.27349
2024-02-16 15:54:00+00:00,304.0,9.0,305.0,10.11,13.44,47.59359,-54.27349
2024-02-16 16:04:00+00:00,299.0,6.23,308.0,7.23,13.44,47.59359,-54.27349
2024-02-16 16:14:00+00:00,300.0,8.69,295.0,10.07,13.6,47.59359,-54.27349
2024-02-16 16:24:00+00:00,282.0,8.18,283.0,9.65,13.6,47.59359,-54.27349
2024-02-16 16:34:00+00:00,299.0,8.16,301.0,9.67,13.6,47.59359,-54.27349
2024-02-16 16:44:00+00:00,303.0,9.63,303.0,10.76,13.6,47.59359,-54.27349
2024-02-16 16:54:00+00:00,300.0,8.5,296.0,10.24,13.6,47.59359,-54.27349
2024-02-16 17:04:00+00:00,290.0,8.05,295.0,9.01,13.6,47.59359,-54.27349
2024-02-16 17:14:01+00:00,302.0,8.2,301.0,9.59,14.32,47.59359,-54.27349
2024-02-16 17:24:01+00:00,296.0,8.64,297.0,9.83,14.32,47.59359,-54.27349
2024-02-16 17:34:01+00:00,294.0,9.04,292.0,9.82,14.32,47.59359,-54.27349
2024-02-16 17:44:01+00:00,278.0,8.01,274.0,9.3,14.32,47.59359,-54.27349
2024-02-16 17:54:01+00:00,274.0,8.89,271.0,9.72,14.32,47.59359,-54.27349
2024-02-16 18:04:01+00:00,274.0,8.45,283.0,10.22,14.32,47.59359,-54.27349
2024-02-16 18:14:00+00:00,280.0,8.35,275.0,10.51,14.0,47.59359,-54.27349
2024-02-16 18:24:00+00:00,273.0,9.58,275.0,10.45,14.0,47.59359,-54.27349
2024-02-16 18:34:00+00:00,270.0,8.19,271.0,9.15,14.0,47.59359,-54.27349
2024-02-16 18:44:00+00:00,280.0,8.75,283.0,10.58,14.0,47.59359,-54.27349
2024-02-16 18:54:00+00:00,276.0,8.74,280.0,10.34,14.0,47.59359,-54.27349
2024-02-16 19:04:00+00:00,280.0,9.09,278.0,10.65,14.0,47.59359,-54.27349
2024-02-16 19:14:00+00:00,293.0,10.44,292.0,11.92,14.24,47.59359,-54.27349
2024-02-16 19:24:00+00:00,280.0,8.48,279.0,10.66,14.24,47.59359,-54.27349
2024-02-16 19:34:00+00:00,279.0,8.19,285.0,9.37,14.24,47.59359,-54.27349
2024-02-16 19:44:00+00:00,278.0,8.93,279.0,9.92,14.24,47.59359,-54.27349
2024-02-16 19:54:00+00:00,271.0,8.36,271.0,10.53,14.24,47.59359,-54.27349
2024-02-16 20:04:00+00:00,273.0,8.57,277.0,9.98,14.24,47.59359,-54.27349
2024-02-16 20:14:00+00:00,279.0,8.42,273.0,10.13,13.53,47.59359,-54.27349
2024-02-16 20:24:00+00:00,271.0,9.15,274.0,10.61,13.53,47.59359,-54.27349
2024-02-16 20:34:00+00:00,276.0,8.38,271.0,10.41,13.53,47.59359,-54.27349
2024-02-16 20:44:00+00:00,278.0,8.01,279.0,10.95,13.53,47.59359,-54.27349
2024-02-16 20:54:00+00:00,282.0,9.48,279.0,10.93,13.53,47.59359,-54.27349
2024-02-16 21:04:00+00:00,271.0,9.88,274.0,10.72,13.53,47.59359,-54.27349
2024-02-16 21:14:00+00:00,286.0,4.98,280.0,8.23,12.97,47.59359,-54.27349
2024-02-16 21:24:00+00:00,267.0,5.5,269.0,8.99,12.97,47.59359,-54.27349
2024-02-16 21:34:00+00:00,276.0,7.36,274.0,9.35,12.97,47.59359,-54.27349
2024-02-16 21:44:00+00:00,261.0,3.99,256.0,4.41,12.97,47.59359,-54.27349
2024-02-16 21:54:00+00:00,270.0,8.36,273.0,9.17,12.97,47.59359,-54.27349
2024-02-16 22:04:00+00:00,266.0,6.89,269.0,9.27,12.97,47.59359,-54.27349
2024-02-16 22:14:00+00:00,271.0,7.3,274.0,9.2,12.41,47.59359,-54.27349
2024-02-16 22:24:00+00:00,265.0,4.81,268.0,8.16,12.41,47.59359,-54.27349
2024-02-16 22:34:00+00:00,247.0,6.54,255.0,9.28,12.41,47.59359,-54.27349
2024-02-16 22:44:00+00:00,260.0,6.15,262.0,8.89,12.41,47.59359,-54.27349
2024-02-16 22:54:00+00:00,267.0,4.25,267.0,5.37,12.41,47.59359,-54.27349
2024-02-16 23:04:00+00:00,261.0,3.69,255.0,4.16,12.41,47.59359,-54.27349
2024-02-16 23:14:01+00:00,287.0,4.31,285.0,5.28,12.25,47.59359,-54.27349
2024-02-16 23:24:01+00:00,280.0,5.32,280.0,8.91,12.25,47.59359,-54.27349
2024-02-16 23:34:01+00:00,281.0,3.43,281.0,3.77,12.25,47.59359,-54.27349
2024-02-16 23:44:01+00:00,295.0,3.6,303.0,4.13,12.25,47.59359,-54.27349
2024-02-16 23:54:01+00:00,288.0,6.37,285.0,8.48,12.25,47.59359,-54.27349
